Del Norte, CO

4:18 PM MDT on August 31, 2016 (GMT -0600)
Wolf Creek Pass

Weather History for KCPW - November, 2012

Change the Weather History Date:

Monday, November 5, 2012

  Actual Average (KALS) Record (KALS)
Temperature  
Mean Temperature 37 °F 35 °F  
Max Temperature 46 °F 53 °F 66 °F (1977)
Min Temperature 28 °F 17 °F -4 °F (1991)
Degree Days  
Heating Degree Days 28 30  
Month to date heating degree days 146  
Since 1 July heating degree days 1256  
Cooling Degree Days 0 0  
Month to date cooling degree days 0  
Year to date cooling degree days 51  
Moisture  
Dew Point 13 °F    
Average Humidity 40    
Maximum Humidity 69    
Minimum Humidity 23    
Precipitation  
Precipitation 0.00 in 0.02 in 0.17 in (1953)
Month to date precipitation 0.09  
Year to date precipitation 6.63  
Snow  
Snow 0.00 in 0.20 in 2.00 in (1933)
Month to date snowfall 0.6  
Since 1 July snowfall 2.7  
Since 1 September snowfall 2.7  
Snow Depth -    
Sea Level Pressure  
Sea Level Pressure 30.53 in    
Wind  
Wind Speed 7 mph (North)    
Max Wind Speed 16 mph    
Max Gust Speed 24 mph    
Visibility 10 miles    
Events      
T = Trace of Precipitation, MM = Missing Value Source: NWS Daily Summary

Daily Weather History Graph

Daily Weather History Graph

Search for Another Location

Airport or City:

Trip Planner

Search our weather history database for the weather conditions in past years. The results will help you decide how hot, cold, wet, or windy it might be!

Date:

Astronomy

Nov. 05, 2012 Rise Set
Actual Time 6:36 AM MST 5:04 PM MST
Civil Twilight 6:09 AM MST 5:31 PM MST
Nautical Twilight 5:38 AM MST 6:02 PM MST
Astronomical Twilight 5:07 AM MST 6:33 PM MST
Moon 10:44 PM MST (11/5) 11:57 AM MST (11/5)
Length of Visible Light 11h 22m
Length of Day
10h 27m
Waning Gibbous, 62% of the Moon is Illuminated
Nov 5
Waning Gibbous
Nov 6
Last Quarter
Nov 13
New
Nov 20
First Quarter
Nov 28
Full

Hourly Weather History & Observations

Time (MST) Temp. Windchill Dew Point Humidity Pressure Visibility Wind Dir Wind Speed Gust Speed Precip Events Conditions
12:19 AM 30.2 °F 26.7 °F 15.8 °F 55% 30.54 in 10.0 mi North 3.5 mph - N/A   Clear
12:39 AM 30.2 °F - 15.8 °F 55% 30.54 in 10.0 mi Calm Calm - N/A   Clear
12:59 AM 30.2 °F 26.7 °F 15.8 °F 55% 30.54 in 10.0 mi WSW 3.5 mph - N/A   Clear
1:19 AM 30.2 °F 24.3 °F 15.8 °F 55% 30.54 in 10.0 mi SSW 5.8 mph - N/A   Clear
1:39 AM 30.2 °F 23.4 °F 17.6 °F 60% 30.54 in 10.0 mi SSW 6.9 mph - N/A   Clear
1:59 AM 30.2 °F 25.4 °F 15.8 °F 55% 30.54 in 10.0 mi South 4.6 mph - N/A   Clear
2:19 AM 30.2 °F 24.3 °F 15.8 °F 55% 30.54 in 10.0 mi South 5.8 mph - N/A   Clear
2:39 AM 32.0 °F 25.6 °F 15.8 °F 51% 30.54 in 10.0 mi North 6.9 mph - N/A   Clear
2:59 AM 30.2 °F 22.6 °F 17.6 °F 60% 30.52 in 10.0 mi NNE 8.1 mph - N/A   Clear
3:19 AM 30.2 °F 21.3 °F 17.6 °F 60% 30.52 in 10.0 mi NNE 10.4 mph 19.6 mph N/A   Clear
3:39 AM 28.4 °F 17.5 °F 19.4 °F 69% 30.52 in 10.0 mi NE 13.8 mph 18.4 mph N/A   Clear
3:59 AM 30.2 °F 23.4 °F 17.6 °F 60% 30.52 in 10.0 mi NW 6.9 mph 17.3 mph N/A   Clear
4:19 AM 32.0 °F 24.2 °F 17.6 °F 55% 30.51 in 10.0 mi North 9.2 mph 18.4 mph N/A   Clear
4:39 AM 30.2 °F 21.9 °F 17.6 °F 60% 30.50 in 10.0 mi NNE 9.2 mph 16.1 mph N/A   Clear
4:59 AM 30.2 °F 23.4 °F 17.6 °F 60% 30.51 in 10.0 mi NW 6.9 mph - N/A   Clear
5:19 AM 32.0 °F 26.4 °F 17.6 °F 55% 30.51 in 10.0 mi NNW 5.8 mph 18.4 mph N/A   Clear
5:39 AM 32.0 °F 23.6 °F 17.6 °F 55% 30.51 in 10.0 mi North 10.4 mph 18.4 mph N/A   Clear
5:59 AM 32.0 °F 27.5 °F 17.6 °F 55% 30.52 in 10.0 mi NNW 4.6 mph - N/A   Clear
6:19 AM 30.2 °F 24.3 °F 17.6 °F 60% 30.52 in 10.0 mi NNW 5.8 mph - N/A   Clear
6:39 AM 30.2 °F 22.6 °F 17.6 °F 60% 30.52 in 10.0 mi North 8.1 mph - N/A   Clear
6:59 AM 32.0 °F 24.8 °F 17.6 °F 55% 30.52 in 10.0 mi NNW 8.1 mph - N/A   Clear
7:19 AM 32.0 °F 24.2 °F 17.6 °F 55% 30.53 in 10.0 mi NNW 9.2 mph 17.3 mph N/A   Clear
7:39 AM 33.8 °F 27.0 °F 15.8 °F 48% 30.53 in 10.0 mi NNW 8.1 mph - N/A   Clear
7:59 AM 33.8 °F 28.6 °F 15.8 °F 48% 30.54 in 10.0 mi WNW 5.8 mph - N/A   Clear
8:19 AM 35.6 °F 31.7 °F 17.6 °F 48% 30.54 in 10.0 mi West 4.6 mph - N/A   Clear
8:39 AM 35.6 °F 32.8 °F 19.4 °F 52% 30.54 in 10.0 mi NW 3.5 mph - N/A   Clear
8:59 AM 37.4 °F 30.8 °F 17.6 °F 45% 30.55 in 10.0 mi NNE 9.2 mph - N/A   Clear
9:19 AM 37.4 °F 32.8 °F 17.6 °F 45% 30.55 in 10.0 mi ENE 5.8 mph - N/A   Clear
9:39 AM 42.8 °F 39.3 °F 17.6 °F 36% 30.55 in 10.0 mi NE 5.8 mph 16.1 mph N/A   Clear
9:59 AM 39.2 °F 35.0 °F 17.6 °F 42% 30.56 in 10.0 mi NE 5.8 mph - N/A   Clear
10:19 AM 41.0 °F 33.9 °F 17.6 °F 39% 30.57 in 10.0 mi NE 12.7 mph 20.7 mph N/A   Clear
10:39 AM 41.0 °F 34.3 °F 17.6 °F 39% 30.57 in 10.0 mi NNE 11.5 mph 21.9 mph N/A   Clear
10:59 AM 41.0 °F - 15.8 °F 36% 30.57 in 10.0 mi Calm Calm - N/A   Clear
11:19 AM 42.8 °F - 17.6 °F 36% 30.55 in 10.0 mi Calm Calm - N/A   Clear
11:39 AM 44.6 °F 43.1 °F 17.6 °F 34% 30.55 in 10.0 mi West 3.5 mph - N/A   Clear
11:59 AM 44.6 °F 42.2 °F 15.8 °F 31% 30.54 in 10.0 mi North 4.6 mph - N/A   Clear
12:19 PM 44.6 °F 41.4 °F 12.2 °F 27% 30.54 in 10.0 mi North 5.8 mph - N/A   Clear
12:39 PM 44.6 °F 41.4 °F 12.2 °F 27% 30.53 in 10.0 mi NNW 5.8 mph - N/A   Clear
12:59 PM 42.8 °F 39.3 °F 14.0 °F 31% 30.52 in 10.0 mi North 5.8 mph 20.7 mph N/A   Clear
1:19 PM 44.6 °F 38.4 °F 12.2 °F 27% 30.52 in 10.0 mi NE 12.7 mph 24.2 mph N/A   Clear
1:39 PM 44.6 °F 39.2 °F 14.0 °F 29% 30.52 in 10.0 mi NW 10.4 mph 20.7 mph N/A   Clear
1:59 PM 44.6 °F 40.2 °F 14.0 °F 29% 30.52 in 10.0 mi North 8.1 mph 21.9 mph N/A   Clear
2:19 PM 46.4 °F 41.1 °F 14.0 °F 27% 30.52 in 10.0 mi North 11.5 mph 23.0 mph N/A   Clear
2:39 PM 46.4 °F 42.4 °F 12.2 °F 25% 30.52 in 10.0 mi NNW 8.1 mph - N/A   Clear
2:59 PM 44.6 °F 41.4 °F 12.2 °F 27% 30.52 in 10.0 mi WNW 5.8 mph 17.3 mph N/A   Clear
3:19 PM 44.6 °F 39.7 °F 10.4 °F 25% 30.52 in 10.0 mi North 9.2 mph 16.1 mph N/A   Clear
3:39 PM 42.8 °F 38.6 °F 8.6 °F 25% 30.53 in 10.0 mi North 6.9 mph 24.2 mph N/A   Clear
3:59 PM 42.8 °F 40.1 °F 8.6 °F 25% 30.53 in 10.0 mi North 4.6 mph - N/A   Clear
4:19 PM 42.8 °F 36.2 °F 6.8 °F 23% 30.53 in 10.0 mi NNE 12.7 mph 20.7 mph N/A   Clear
4:39 PM 41.0 °F 37.1 °F 8.6 °F 26% 30.52 in 10.0 mi North 5.8 mph 19.6 mph N/A   Clear
4:59 PM 41.0 °F 37.1 °F 10.4 °F 29% 30.52 in 10.0 mi West 5.8 mph - N/A   Clear
5:19 PM 37.4 °F 31.4 °F 12.2 °F 36% 30.52 in 10.0 mi West 8.1 mph - N/A   Clear
5:39 PM 37.4 °F 32.8 °F 12.2 °F 36% 30.53 in 10.0 mi WNW 5.8 mph - N/A   Clear
5:59 PM 37.4 °F 29.8 °F 10.4 °F 33% 30.53 in 10.0 mi NW 11.5 mph 20.7 mph N/A   Clear
6:19 PM 35.6 °F 28.0 °F 10.4 °F 35% 30.52 in 10.0 mi WNW 10.4 mph - N/A   Clear
6:39 PM 35.6 °F 29.9 °F 8.6 °F 33% 30.53 in 10.0 mi NW 6.9 mph - N/A   Clear
6:59 PM 33.8 °F 28.6 °F 12.2 °F 41% 30.53 in 10.0 mi WSW 5.8 mph - N/A   Clear
7:19 PM 35.6 °F 30.7 °F 8.6 °F 33% 30.53 in 10.0 mi NNW 5.8 mph - N/A   Clear
7:39 PM 35.6 °F 26.2 °F 5.0 °F 28% 30.53 in 10.0 mi NNE 15.0 mph 21.9 mph N/A   Clear
7:59 PM 35.6 °F 26.6 °F 1.4 °F 24% 30.53 in 10.0 mi NNE 13.8 mph 20.7 mph N/A   Clear
8:19 PM 33.8 °F 28.6 °F 1.4 °F 25% 30.54 in 10.0 mi NE 5.8 mph 18.4 mph N/A   Clear
8:39 PM 33.8 °F 29.6 °F 3.2 °F 28% 30.54 in 10.0 mi East 4.6 mph - N/A   Clear
8:59 PM 33.8 °F 29.6 °F 1.4 °F 25% 30.54 in 10.0 mi NW 4.6 mph - N/A   Clear
9:19 PM 33.8 °F 28.6 °F 1.4 °F 25% 30.54 in 10.0 mi NNW 5.8 mph - N/A   Clear
9:39 PM 32.0 °F 23.6 °F 1.4 °F 27% 30.54 in 10.0 mi East 10.4 mph - N/A   Clear
9:59 PM 32.0 °F 24.2 °F 1.4 °F 27% 30.54 in 10.0 mi ENE 9.2 mph - N/A   Clear
10:19 PM 32.0 °F 23.0 °F 3.2 °F 30% 30.54 in 10.0 mi ENE 11.5 mph - N/A   Clear
10:39 PM 32.0 °F 24.2 °F 3.2 °F 30% 30.54 in 10.0 mi ENE 9.2 mph - N/A   Clear
10:59 PM 32.0 °F 22.1 °F 3.2 °F 30% 30.53 in 10.0 mi NE 13.8 mph - N/A   Clear
11:19 PM 32.0 °F 21.2 °F 8.6 °F 38% 30.53 in 10.0 mi NE 16.1 mph - N/A   Clear
11:39 PM 32.0 °F 27.5 °F 8.6 °F 38% 30.54 in 10.0 mi SW 4.6 mph - N/A   Clear
11:59 PM 33.8 °F - 5.0 °F 30% 30.54 in 10.0 mi Calm Calm - N/A   Clear